Ronghe Shiyan Weixing 1

operational
NORAD ID: 49112 Int'l Des: 2021-076 Owner: CAST Country: CN
LEOCIRCULARPOLARONEWEB_TYPE

Ronghe Shiyan Weixing 1について

説明を読み込み中...

リアルタイム位置

3D地球を読み込み中...

次回通過

高度履歴

Altitude vs Time

uPlot chart will show altitude changes over time

軌道要素

1 49112U 21076A 25278.51931381 .00000084 00000-0 12101-3 0 9998
2 49112 86.4037 248.7404 0017249 60.4867 299.7995 13.42827113201702
Epoch: Oct 5, 2025 • Age: 16 hours

現在のステータス

高度 1095.1 km
速度 7.31 km/s
衛星直下点 -0.42°S, 165.03°E
打ち上げ日 Aug 24, 2021
運用期間 4.1 years
タイプ other

技術仕様

分類 Payload
質量 300.00 kg
乾燥質量 300.00 kg
総質量 300.00 kg
長さ 2.50 m
直径 0.80 m
スパン 2.50 m
形状 Box + 2 Pan
製造者 CAST
フェーズステータス In Orbit
所有者/国 CAST/CN

大規模コンステレーション

Loading constellations...